AO-07 1 07530U 74089B 26163.99565515 -.00000026 00000-0 12799-3 0 9996 2 07530 101.9901 177.1986 0012526 137.9141 293.2680 12.53698039359990 UO-11 1 14781U 84021B 26163.85854639 .00001300 00000-0 13794-3 0 9993 2 14781 97.8056 129.4817 0007224 187.2245 172.8870 14.90773494256480 LO-19 1 20442U 90005G 26164.27491357 .00000112 00000-0 56559-4 0 9991 2 20442 98.8851 185.9726 0010913 213.1230 146.9271 14.34122089901832 AO-27 1 22825U 93061C 26164.15406138 .00000089 00000-0 50981-4 0 9999 2 22825 98.6880 231.5690 0009492 110.1109 250.1096 14.30941223706424 FO-29 1 24278U 96046B 26164.17077485 .00000020 00000-0 52418-4 0 9992 2 24278 98.5242 13.5932 0350861 106.8274 257.1655 13.53274066472628 GO-32 1 25397U 98043D 26163.92005205 .00000055 00000-0 44031-4 0 9997 2 25397 99.0066 156.5710 0000824 172.5768 187.5423 14.24427656450722 ISS 1 25544U 98067A 26164.12566316 .00008200 00000-0 15573-3 0 9993 2 25544 51.6335 320.1950 0004891 179.6545 180.4447 15.49201403571127 NO-44 1 26931U 01043C 26163.68920803 .00000104 00000-0 69629-4 0 9994 2 26931 67.0508 255.9055 0006097 264.4785 95.5621 14.31954659289800 SO-50 1 27607U 02058C 26164.24421271 .00000961 00000-0 13060-3 0 9998 2 27607 64.5508 141.1849 0075342 263.2031 96.0498 14.83038952263873 CO-55 1 27844U 03031E 26163.96278740 .00000273 00000-0 13691-3 0 9998 2 27844 98.6734 172.5745 0009216 190.4426 169.6563 14.24333311191078 RS-22 1 27939U 03042A 26164.29458147 .00000482 00000-0 82531-4 0 9995 2 27939 98.3470 348.5437 0009993 283.6948 249.4660 14.73459157214977 CO-65 1 32785U 08021C 26164.20500221 .00005360 00000-0 33898-3 0 9995 2 32785 97.8270 145.5406 0010244 51.3839 308.8305 15.09418945984593 CO-66 1 32791U 08021J 26163.95721681 .00018823 00000-0 59952-3 0 9995 2 32791 97.7514 161.6531 0001704 17.5386 342.5913 15.32612695986642 RS-30 1 32953U 08025A 26164.31599453 .00000099 00000-0 64225-3 0 9995 2 32953 82.5046 357.8494 0019007 322.6359 37.3398 12.43179330819213 SRMSAT 1 37841U 11058D 26163.50299332 .00000363 00000-0 53009-4 0 9992 2 37841 19.9716 87.8194 0011893 152.1713 3.7826 14.11574639757159 ZACUBE-1 1 39417U 13066B 26164.14131243 .00003691 00000-0 28793-3 0 9999 2 39417 97.8084 126.4562 0040377 261.8292 97.8350 15.01166542680129 Delfi-N3xt 1 39428U 13066N 26164.22913226 .00004771 00000-0 41859-3 0 9997 2 39428 97.8342 84.5446 0073397 219.1264 140.4636 14.95044316674037 GOMX-1 1 39430U 13066Q 26164.30462626 .00001784 00000-0 27199-3 0 9994 2 39430 97.6489 5.0132 0130205 89.8856 271.7270 14.69446026669346 LO-74 1 39440U 13066AA 26163.84301877 .00004525 00000-0 41877-3 0 9998 2 39440 97.8900 112.8027 0058755 43.0424 317.5369 14.93728016676344 AO-73 1 39444U 13066AE 26164.14541675 .00007185 00000-0 44671-3 0 9998 2 39444 97.8264 135.5066 0035317 215.1980 144.6915 15.09441691679050 DTUSAT-2 1 40030U 14033W 26162.95402888 .00006216 00000-0 33719-3 0 9990 2 40030 98.0857 160.3488 0006303 246.9203 113.1364 15.14950176651891 LILACSAT-2 1 40908U 15049K 26164.27322069 .00019691 00000-0 33643-3 0 9998 2 40908 97.4653 200.9661 0005320 263.8719 96.1927 15.51324862595142 Horyu-4 1 41340U 16012D 26164.24367275 .00411178 59322-4 11265-2 0 9991 2 41340 30.9840 107.9281 0004244 244.6601 115.3620 15.92808659570185 Lapan A3 1 41603U 16040E 26164.27495906 .00003405 00000-0 10872-3 0 9999 2 41603 97.1483 160.5490 0011331 38.8477 321.3578 15.33081105554212 CAS-2T 1 41847U 16066G 26164.22346131 .00001632 00000-0 23577-3 0 9993 2 41847 98.3820 240.0050 0342676 141.4655 221.1545 14.44682028504223 TechnoSat 1 42829U 17042E 26164.25990608 .00003897 00000-0 27823-3 0 9999 2 42829 97.4267 322.0673 0018791 106.6312 253.6980 15.04933728486115 AO-91 1 43017U 17073E 26164.17294973 .00009278 00000-0 40511-3 0 9994 2 43017 97.4713 31.4706 0150189 343.1740 16.4538 15.12658039464781 S-Net D 1 43186U 18014G 26164.23939796 .00004913 00000-0 25442-3 0 9990 2 43186 97.5371 69.0549 0009324 42.3209 317.8742 15.16637658458161 S-Net B 1 43187U 18014H 26164.25077382 .00004746 00000-0 24608-3 0 9994 2 43187 97.5380 69.0529 0009848 37.7627 322.4295 15.16608334458167 S-Net A 1 43188U 18014J 26164.23829673 .00004895 00000-0 25344-3 0 9994 2 43188 97.5389 69.2482 0009715 38.5958 321.5967 15.16645203458168 S-Net C 1 43189U 18014K 26164.25463002 .00004861 00000-0 25194-3 0 9993 2 43189 97.5405 69.3388 0010894 30.6747 329.5121 15.16600549456716 Ten-Koh 1 43677U 18084G 26164.26218826 .00002231 00000-0 17087-3 0 9996 2 43677 98.0776 356.4606 0011186 125.8249 234.4016 15.02929048415576 PO-101 1 43678U 18084H 26164.30196316 .00002266 00000-0 18516-3 0 9997 2 43678 98.1180 0.3416 0012283 182.6925 177.4233 15.00433960415637 QO-100 1 43700U 18090A 26164.26802512 .00000156 00000-0 00000-0 0 9999 2 43700 0.0014 352.0519 0001498 130.5545 261.2737 1.00268629 27631 MinXSS-2 1 43758U 18099A 26164.14551300 .00036339 00000-0 72768-3 0 9999 2 43758 97.4548 240.3117 0006412 271.8003 88.2512 15.46642907413501 AO-95 1 43770U 18099N 26164.14505075 .00010687 00000-0 41004-3 0 9998 2 43770 97.4395 224.4060 0008410 12.6677 347.4772 15.26630573412605 SNUSat 2 1 43782U 18099AA 26164.05935128 .00008048 00000-0 35739-3 0 9993 2 43782 97.4065 217.5063 0008789 315.7820 44.2713 15.21779173412404 SnugLite 1 43784U 18099AC 26164.14671401 .00012036 00000-0 45534-3 0 9992 2 43784 97.3878 218.4663 0001348 325.5909 34.5242 15.27095918412700 ITASat 1 1 43786U 18099AE 26164.13515017 .00007046 00000-0 33910-3 0 9993 2 43786 97.4035 215.7274 0012539 14.5833 345.5761 15.19009919412293 EAGLET 1 1 43790U 18099AJ 26164.08448171 .00004692 00000-0 26969-3 0 9998 2 43790 97.4235 213.8614 0011070 8.5412 351.6005 15.12910591411717 ESEO 1 43792U 18099AL 26164.05605303 .00002157 00000-0 15914-3 0 9991 2 43792 97.3969 201.6208 0011760 353.7452 6.3626 15.04232136411188 JO-97 1 43803U 18099AX 26164.11559628 .00018314 00000-0 56663-3 0 9997 2 43803 97.4136 226.9355 0004159 282.3495 77.7281 15.33530992413004 Suomi 100 1 43804U 18099AY 26164.14705133 .00011498 00000-0 41885-3 0 9991 2 43804 97.4198 224.5551 0008362 296.4725 63.5657 15.28327206412800 ISAT 1 43879U 18111D 26163.81411290 .00088374 00000-0 91074-3 0 9991 2 43879 97.5888 98.7007 0001022 70.0748 290.0621 15.64543764410482 UWE-4 1 43880U 18111E 26163.74910111 .00036318 00000-0 74700-3 0 9999 2 43880 97.5854 91.9364 0006328 1.7495 358.3775 15.45861506410093 Sparrow 1 43881U 18111F 26163.80756427 .00158434 00000-0 11354-2 0 9994 2 43881 97.6115 104.2344 0004582 105.8676 254.3093 15.73206167410688 Prox-1 1 44339U 19036A 26164.24145975 .00013759 00000-0 13448-2 0 9995 2 44339 23.9923 140.6090 0005471 351.0248 9.0153 14.90523794372883 Taurus 1 1 44530U 19059C 26164.23245387 .00006282 00000-0 10073-2 0 9994 2 44530 98.6404 328.8156 0007602 330.6154 29.4623 14.72058402358060 TO-108 1 44881U 19093C 26164.27523939 .00000555 00000-0 68611-4 0 9997 2 44881 97.7533 236.6024 0014992 98.6754 261.6161 14.86511535350839 RS-44 1 44909U 19096E 26164.25248182 .00000030 00000-0 69239-4 0 9998 2 44909 82.5217 342.3200 0218014 153.3389 207.9122 12.79748773301849 SALSAT 1 46495U 20068K 26164.15546278 .00007973 00000-0 27935-3 0 9996 2 46495 97.8846 166.9746 0008358 325.1548 34.9143 15.29744309314740 CSS (TIANHE-1) 1 48274U 21035A 26164.20166782 .00021964 00000-0 26062-3 0 9998 2 48274 41.4695 346.2530 0007879 44.9431 315.2045 15.60638421292543 CUTE 1 49263U 21088D 26164.22917607 .00144343 98801-5 43833-3 0 9990 2 49263 97.4156 263.1438 0007733 235.8257 124.2284 15.92044996261929 TeikyoSat 4 1 49396U 21102B 26164.07703011 .00001772 00000-0 11426-3 0 9999 2 49396 97.3671 193.7203 0010731 312.7756 47.2570 15.09495682252108 Z-Sat 1 49399U 21102E 26164.30945183 .00005693 00000-0 28056-3 0 9999 2 49399 97.3328 199.7499 0014915 260.1850 99.7700 15.18239208252851 KOSEN 1 1 49402U 21102H 26164.07826452 .00007900 00000-0 30211-3 0 9994 2 49402 97.3191 206.3152 0012761 215.7054 144.3332 15.26781109253393 HO-113 1 50466U 21131B 26164.30597126 .00000366 00000-0 12679-3 0 9994 2 50466 98.4978 256.7164 0005299 105.1268 255.0508 14.41353637234558 SNUGLITE 2 1 52899U 22065F 26164.27286261 .00000876 00000-0 17495-3 0 9991 2 52899 98.2196 309.1104 0008240 44.1957 315.9902 14.64341124210420 UmKA 1 (RS40S) 1 57172U 23091G 26164.27769354 .00005936 00000-0 27193-3 0 9997 2 57172 97.5057 222.9897 0014097 129.8079 230.4399 15.20774579163415 CubeBel-2 (EU11S) 1 57175U 23091K 26164.25746233 .00013478 00000-0 47920-3 0 9999 2 57175 97.5060 227.4390 0011212 126.5309 233.6965 15.29060611163706 RS-38S 1 57189U 23091Z 26164.23876647 .00016761 00000-0 48095-3 0 9997 2 57189 97.5100 233.6445 0008500 89.4621 270.7597 15.35907033164086 SONATE-2 1 59112U 24043Q 26164.22192232 .00040374 00000-0 52937-3 0 9990 2 59112 97.5519 314.3760 0006871 208.7860 151.3017 15.58436323127270 GRBBeta 1 60237U 24128C 26164.30428810 .00003355 00000-0 23558-3 0 9992 2 60237 61.9896 229.8892 0041132 133.8417 226.6088 15.06616120105687 Curium One 1 60242U 24128H 26164.26953089 .00006590 00000-0 38226-3 0 9996 2 60242 61.9778 219.6499 0040345 129.8056 230.6603 15.12466281105867 ROBUSTA-3A 1 60243U 24128J 26164.23212749 .00006618 00000-0 39222-3 0 9993 2 60243 61.9859 222.2311 0041750 127.4216 233.0691 15.11635728105827 CatSat 1 60246U 24125J 26164.09450112 .00063466 00000-0 82812-3 0 9992 2 60246 97.2087 16.5442 0022191 193.8597 166.2053 15.58191651106756 HYPERVIEW-1G (RS66S) 1 61772U 24199AP 26164.25138581 .00136956 00000-0 91763-3 0 9999 2 61772 97.2884 43.7752 0002821 240.6111 119.4872 15.74851223134052 AO-123 1 61781U 24199AY 26164.25532494 .00007701 00000-0 22415-3 0 9993 2 61781 97.3011 32.9622 0012637 329.7335 30.3178 15.35622337133322 JINJUSat 1B 1 63210U 25052A 26164.23066708 .00017100 00000-0 53158-3 0 9991 2 63210 97.4016 60.9810 0005479 99.7525 260.4336 15.33388002 69492 NUSHSAT 1 1 63211U 25052B 26164.21553081 .00020316 00000-0 58406-3 0 9999 2 63211 97.3995 61.5177 0005195 102.2269 257.9557 15.35826108 69538 TEVEL2-4 1 63213U 25052D 26164.26972619 .00018898 00000-0 56728-3 0 9995 2 63213 97.3917 60.6555 0004733 110.4316 249.7436 15.34482014 69511 TEVEL2-5 1 63214U 25052E 26163.96369743 .00019112 00000-0 57700-3 0 9991 2 63214 97.3917 60.2979 0004664 112.6525 247.5211 15.34298068 69462 TEVEL2-6 1 63215U 25052F 26164.23681016 .00018774 00000-0 56731-3 0 9999 2 63215 97.3921 60.5561 0004592 112.1174 248.0556 15.34273668 69505 TEVEL2-1 1 63217U 25052H 26164.19922752 .00018012 00000-0 55363-3 0 9996 2 63217 97.3890 60.1475 0004530 121.4077 238.7609 15.33742375 69486 TEVEL2-3 1 63218U 25052J 26164.25925316 .00018619 00000-0 57110-3 0 9998 2 63218 97.3894 60.2289 0004556 121.1878 238.9812 15.33799841 69498 TEVEL2-2 1 63219U 25052K 26164.26480536 .00017385 00000-0 53430-3 0 9990 2 63219 97.3884 60.2162 0004634 121.5188 238.6507 15.33751578 69496 TEVEL2-9 1 63237U 25052AD 26164.23717219 .00016597 00000-0 54230-3 0 9991 2 63237 97.3954 59.5715 0007453 141.5778 218.5996 15.31784932 69428 TEVEL2-7 1 63238U 25052AE 26164.21198651 .00016192 00000-0 53402-3 0 9994 2 63238 97.3956 59.4641 0007517 142.1332 218.0439 15.31491052 69416 TEVEL2-8 1 63239U 25052AF 26163.69748469 .00017638 00000-0 58194-3 0 9993 2 63239 97.3955 58.9279 0007531 144.4315 215.7430 15.31459087 69337 SPIRONE 1 66657U 25274H 26163.76619764 .00002414 00000-0 23425-3 0 9994 2 66657 97.7484 93.1208 0013108 35.9710 324.2390 14.93530918 29560 K-HERO 1 66660U 25274L 26164.03993810 .00001746 00000-0 16902-3 0 9995 2 66660 97.7493 93.5485 0015045 38.0369 322.1910 14.93949693 29616 SNUGLITE-III DURI 1 66661U 25274M 26164.29573392 .00001900 00000-0 18330-3 0 9992 2 66661 97.7489 93.8212 0015611 37.8397 322.3917 14.93990595 29650 SAKHACUBE-CHOLBON 1 67290U 25313AU 26164.15732853 .00009790 00000-0 39672-3 0 9996 2 67290 97.3940 239.2422 0009278 19.7173 340.4422 15.24820219 25365 RS95S (QMR-KWT-2) 1 67291U 25313AV 26164.14926585 .00014258 00000-0 55299-3 0 9991 2 67291 97.3939 239.4014 0008616 18.0862 342.0681 15.26194939 25376 Ten-Koh2 1 68261U 25241B 26163.75309574 .00006733 00000-0 28882-3 0 9995 2 68261 51.6688 340.7302 0006220 129.1922 230.9609 15.23854656 14238 JACK-002 1 68417U 26067B 26164.14406747 .00007016 00000-0 33506-3 0 9993 2 68417 97.4563 122.7845 0000675 12.3432 347.7819 15.19348351 11331 DISCO 2 1 68431U 26067R 26163.96675003 .00009213 00000-0 44310-3 0 9997 2 68431 97.4595 122.5983 0003202 50.0986 310.0530 15.19012286 11300 HADES-SA (SpinnyONE) 1 68446U 26067AG 26163.80818706 .00019788 00000-0 94817-3 0 9990 2 68446 97.4393 122.1700 0009698 93.0154 267.2191 15.18919379 11263 PARUS-6U1 1 68456U 26067AS 26164.23204984 .00006066 00000-0 30596-3 0 9995 2 68456 97.4547 122.6563 0007557 81.8496 278.3595 15.17476964 11339 SAL-E 1 68458U 26067AU 26164.16216027 .00008487 00000-0 42385-3 0 9998 2 68458 97.4472 122.5261 0007955 89.3204 270.8942 15.17701788 11321 FSI-SAT 2 1 68792U 26088A 26163.37165100 .00005097 00000-0 34547-3 0 9994 2 68792 97.5050 312.7524 0015546 121.9380 238.3362 15.06794805 7569 OrigamiSat 2 1 68795U 26088D 26163.91742595 .00003406 00000-0 22097-3 0 9995 2 68795 97.5058 313.4073 0016628 95.5779 264.7346 15.08635651 7657 ARICA 2 1 68796U 26088E 26163.91589593 .00004231 00000-0 27519-3 0 9994 2 68796 97.5044 313.3989 0017084 93.6968 266.6214 15.08393186 7653 WASEDA-SAT-ZERO-II 1 68797U 26088F 26163.97853302 .00006536 00000-0 42056-3 0 9996 2 68797 97.5040 313.4674 0016812 93.6492 266.6659 15.08595187 7661 MANGARO-II-Piscus 1 68798U 26088G 26164.23469261 .00004540 00000-0 29173-3 0 9992 2 68798 97.5055 313.7454 0020426 95.0952 265.2609 15.08756035 7706 IO-86 1 40931U 25360.30710720 .00000000 00000-0 12800-3 0 00 2 40931 6.0006 332.5373 0012733 338.8432 8.1437 14.79075515 01 LILIUM-4 1 71922C 26067AC 26089.50133053 -.00014632 00000 0 -74472-3 0 04 2 71922 97.4497 49.1617 0004341 5.9603 355.7042 15.16896692 16